Theta_e
339 339 339 341 341 340 340 339 339 339 338 336 333 332 333 333 332 332 334 336 337 337 337 337 337 337 337 336 336 336 335 334 334 334 334 333 333 333 332 333 332 332 332 333 333 331 331 332 330 326 327 327 323 322 320 319 317 318 324 328 329 329 329 329 327 324 325 327 328 328 328 329 328 327 327 326 326 326 325 325 326 326 326 326 327
339 339 340 340 340 340 339 339 339 339 337 334 332 332 333 332 332 331 332 333 335 335 335 335 336 336 335 335 335 335 334 333 334 334 334 334 334 332 331 331 331 331 331 332 332 331 331 330 328 326 327 325 322 319 317 316 316 320 325 327 328 329 329 330 327 323 320 321 326 327 327 327 327 327 327 326 325 325 324 325 325 326 327 326 326
339 339 339 340 340 340 339 340 339 338 335 333 333 333 334 334 334 332 332 332 333 333 333 334 334 334 334 335 334 334 334 333 333 333 333 334 334 331 330 331 331 332 332 332 331 331 329 327 327 326 326 323 319 317 315 317 319 323 325 325 325 326 327 328 326 324 320 318 321 325 326 326 326 326 326 326 325 324 324 325 326 326 326 327 326
339 339 339 339 339 340 339 339 338 336 334 332 334 335 335 335 334 332 333 333 333 332 332 333 332 333 333 333 333 333 334 333 333 333 333 333 333 331 329 330 331 332 332 331 330 329 327 326 325 324 325 322 318 316 316 320 323 324 325 324 324 325 325 325 324 323 322 321 320 321 324 325 326 326 326 325 325 324 324 324 326 326 325 325 325
338 339 339 339 339 340 339 339 337 335 333 333 334 335 335 334 333 332 332 333 333 333 333 333 332 332 332 332 333 333 333 332 333 334 334 334 334 333 330 330 330 331 331 330 330 329 327 327 325 323 324 322 318 319 321 323 324 324 324 324 324 325 325 324 324 323 323 323 322 319 319 323 325 325 325 325 325 324 324 324 325 326 325 324 325
338 339 339 338 339 339 339 338 337 335 333 333 333 333 333 333 332 332 333 332 333 333 333 333 333 333 332 332 333 333 333 332 333 334 334 334 334 333 332 331 330 330 330 330 330 329 327 327 326 323 323 323 321 322 323 324 324 324 324 324 324 324 324 325 324 324 323 323 322 318 318 321 323 324 325 325 325 324 324 323 324 325 325 324 324
338 339 338 339 339 338 338 338 337 335 333 332 332 332 332 332 332 332 332 331 332 332 332 332 333 333 331 332 332 333 333 332 332 333 333 333 332 332 332 331 330 328 328 329 329 328 326 326 324 323 323 323 323 323 323 323 324 323 323 323 323 323 324 324 324 324 323 323 321 319 321 323 323 324 325 325 325 324 324 324 324 324 324 324 323
338 338 338 338 338 338 338 337 337 335 332 332 333 333 332 332 332 332 332 332 332 332 332 332 332 332 332 332 332 332 332 331 332 332 333 333 333 333 332 330 330 329 329 328 327 326 325 324 323 322 321 322 323 323 323 324 323 323 323 323 323 323 323 323 324 323 322 322 322 321 323 324 324 325 325 324 324 323 323 324 324 323 323 323 323
339 339 338 337 338 338 337 336 336 335 332 332 334 333 332 332 332 332 333 332 331 332 332 332 332 332 332 331 331 331 331 331 331 331 332 333 333 332 331 330 330 330 330 329 328 326 325 324 324 322 320 320 322 323 323 323 323 323 323 323 323 323 323 323 323 323 322 322 322 322 324 324 324 325 325 325 323 323 323 323 323 323 323 323 323
339 339 337 337 337 337 336 336 336 335 333 331 332 333 332 330 331 331 331 331 331 331 332 331 331 331 331 329 330 330 330 331 331 330 332 332 332 331 330 330 331 330 331 329 328 327 326 326 325 323 319 319 321 322 322 323 323 323 323 323 323 323 323 323 323 322 322 322 322 322 323 324 324 325 325 325 325 323 323 323 323 323 323 323 323
339 339 337 336 336 336 336 336 336 335 334 332 331 331 329 328 330 331 330 331 331 330 330 330 330 330 330 330 330 330 330 332 331 330 330 331 331 331 330 330 330 329 329 328 328 327 325 325 325 322 318 318 320 321 322 322 322 322 323 323 323 323 323 323 323 322 322 322 321 322 324 324 325 326 325 325 325 324 324 324 323 323 323 323 324
339 338 337 336 336 336 336 336 337 335 334 332 332 331 328 327 328 330 331 330 329 329 329 330 330 331 331 330 330 330 331 331 331 330 330 331 331 331 330 329 328 328 328 328 328 327 326 325 322 319 318 317 318 320 322 323 323 323 323 323 323 322 322 322 323 322 322 322 322 323 324 325 326 326 326 325 326 325 325 324 324 324 323 324 324
338 337 336 336 335 336 336 336 336 335 333 331 332 332 329 327 327 329 332 331 329 329 329 331 331 331 330 329 329 330 330 330 330 330 330 331 330 330 329 329 329 327 326 327 326 326 326 324 321 319 318 318 318 318 321 323 324 324 324 324 323 322 322 322 322 322 322 322 322 323 323 324 326 327 327 326 326 326 325 324 324 324 324 324 324
337 336 335 335 335 335 336 335 336 335 333 331 330 331 330 328 329 331 332 331 330 329 329 331 331 330 328 328 328 329 329 330 330 330 330 330 329 329 329 328 327 326 326 326 326 325 324 322 319 319 318 318 318 318 318 321 323 324 324 324 324 322 322 322 322 322 322 321 320 322 324 324 326 328 328 327 327 327 326 325 324 324 325 325 325
336 335 334 334 335 335 336 335 335 335 333 331 329 329 330 330 329 330 332 332 331 329 329 330 330 330 328 328 329 328 328 329 329 329 330 329 329 329 329 328 326 326 326 325 324 323 321 320 319 319 318 318 318 318 317 318 321 323 324 324 324 322 322 322 322 322 323 321 319 319 322 323 326 328 328 328 328 327 327 325 325 325 326 326 327
334 333 333 334 334 335 336 335 335 335 333 331 329 327 329 331 329 328 331 331 331 330 329 328 328 329 327 327 328 328 328 328 328 328 329 329 329 329 328 327 326 326 325 324 323 321 320 319 319 318 318 318 318 318 317 316 319 322 323 324 324 323 323 323 322 322 323 322 320 318 318 320 322 326 328 328 328 327 327 326 326 326 327 327 327
333 333 332 333 335 336 335 335 335 334 333 331 329 327 327 330 329 327 329 329 329 329 329 329 328 328 326 326 327 327 328 328 327 327 328 328 328 328 328 327 327 326 325 325 322 320 319 319 318 318 318 318 318 317 317 316 317 320 322 323 323 324 323 323 322 322 322 322 322 320 319 320 320 324 327 328 328 327 327 327 326 327 327 327 327
333 333 332 332 335 336 335 335 334 333 332 331 330 328 326 328 328 328 328 327 328 329 328 328 329 327 324 324 325 326 328 327 326 326 326 326 327 326 327 328 327 326 325 323 320 319 319 318 318 318 318 317 317 316 315 315 318 321 322 322 322 323 324 323 322 322 323 322 322 322 322 322 322 324 326 327 327 327 327 326 326 327 327 327 327
333 332 331 331 333 335 335 335 334 332 331 330 330 329 327 326 326 327 327 325 328 329 328 327 328 328 325 324 324 325 327 327 326 325 325 325 325 324 325 327 326 324 322 320 318 319 318 317 317 317 317 316 315 316 318 319 321 322 322 322 322 323 323 323 322 322 323 322 323 323 323 323 324 325 326 326 327 327 326 326 326 326 327 327 327
334 332 331 330 331 333 335 335 333 332 331 330 329 329 328 326 325 326 325 324 327 329 329 328 329 328 326 325 324 323 324 326 325 323 324 325 324 324 323 324 323 322 321 318 317 317 317 317 316 316 316 316 317 320 322 322 323 323 323 323 323 323 323 323 323 323 323 323 323 323 323 323 324 326 326 327 327 326 326 326 326 326 327 326 326
334 333 332 330 330 332 334 335 333 332 331 331 328 327 328 327 325 326 325 325 326 328 329 329 329 328 326 324 323 321 321 324 324 321 321 322 322 323 321 320 320 320 318 316 316 317 317 317 316 316 317 318 319 322 323 323 323 323 324 323 324 324 324 323 323 323 324 324 324 324 323 322 324 326 327 327 327 326 325 325 326 326 326 325 325
332 333 333 332 332 333 333 334 333 332 331 331 328 326 327 328 326 326 326 325 325 327 329 329 328 327 326 324 322 321 320 320 321 319 318 315 315 317 316 316 318 318 316 315 315 316 316 316 316 316 319 321 321 323 323 323 323 323 324 324 324 324 324 323 322 323 324 324 324 324 323 322 322 324 326 326 326 325 325 325 325 325 325 325 325
331 332 333 333 334 333 333 333 332 331 331 330 328 326 326 328 327 326 327 325 324 325 327 329 328 327 325 324 324 324 323 320 319 318 315 311 310 310 311 313 315 315 315 315 314 315 315 315 315 318 321 322 322 323 323 324 324 324 324 324 323 323 324 323 322 323 324 324 324 324 323 323 322 321 324 325 324 325 325 325 325 324 324 323 323
331 331 332 333 334 333 331 331 332 332 331 331 328 326 325 328 328 327 327 326 324 324 326 326 327 327 324 324 327 327 326 324 323 319 311 308 308 307 309 310 312 313 313 314 314 314 313 314 317 320 322 323 323 323 324 324 324 324 324 323 322 322 323 323 324 324 323 323 323 323 323 322 321 320 323 325 325 325 324 324 325 324 322 322 322
331 330 331 333 334 333 331 331 333 332 332 331 329 326 325 326 328 328 327 327 325 324 324 323 324 325 324 325 327 327 326 325 325 319 309 308 308 306 307 308 311 312 312 312 312 312 314 318 321 323 323 324 324 324 323 323 323 323 323 323 322 321 322 323 323 323 323 322 322 324 323 321 320 322 324 325 325 324 322 324 324 323 321 322 322
330 330 330 331 331 333 332 330 332 332 331 331 329 328 326 324 326 327 327 327 326 325 323 321 322 322 323 326 327 327 326 325 325 317 310 311 311 309 307 308 310 311 311 311 311 314 319 323 323 324 324 324 324 324 323 323 323 323 323 324 322 321 322 322 321 322 323 322 323 324 322 320 321 323 324 325 325 323 322 323 323 322 321 322 322
330 330 330 330 329 331 332 330 331 331 330 329 328 328 324 324 326 326 325 326 326 325 323 322 323 321 322 326 327 326 325 325 322 313 313 317 316 314 311 309 310 311 313 313 316 321 324 324 324 325 324 324 324 324 325 324 323 323 323 323 322 321 322 322 321 322 323 323 323 323 321 320 320 322 323 324 324 323 322 321 321 322 321 321 321
330 330 330 330 329 329 330 330 330 330 330 328 328 326 323 326 327 326 325 326 324 322 324 324 324 323 322 326 327 326 326 323 315 311 317 320 319 320 316 313 314 317 319 320 322 325 325 325 325 325 324 323 323 324 325 323 323 323 322 322 322 321 321 322 322 322 323 323 323 323 321 319 318 319 320 322 323 322 320 320 321 322 321 320 321
330 330 330 330 329 329 330 330 329 329 329 328 328 326 325 327 328 327 326 326 325 323 325 325 325 325 322 325 328 326 323 318 312 315 322 323 324 324 321 321 322 323 324 324 326 326 325 326 325 325 325 324 323 323 324 324 323 322 322 323 322 321 321 322 323 322 323 324 323 322 321 320 319 316 315 317 319 319 318 319 321 321 320 320 320
331 330 330 331 330 329 329 330 329 329 328 328 327 326 326 328 328 327 326 326 327 325 325 326 325 325 322 325 327 321 316 317 316 318 324 326 327 325 324 326 326 326 326 326 326 326 326 326 326 326 326 325 324 324 324 324 322 321 323 323 321 321 321 322 323 323 323 323 322 322 322 321 319 316 312 310 315 317 318 320 321 321 320 319 318
331 331 331 331 330 330 329 328 329 328 328 328 326 325 327 328 328 328 326 327 328 326 326 327 327 326 323 323 324 318 317 322 322 320 325 327 327 325 326 327 327 327 326 326 326 326 326 325 326 326 325 325 325 324 324 323 322 321 323 323 321 322 322 321 323 324 323 322 322 322 321 320 318 317 312 305 311 317 318 319 319 320 319 317 316
330 330 331 332 331 330 330 328 328 327 326 327 325 325 326 327 328 329 327 327 328 327 325 327 327 327 325 319 319 322 324 326 324 324 326 327 327 326 326 327 327 327 327 326 326 326 326 325 325 324 324 324 323 323 323 322 322 322 323 323 321 323 323 323 324 324 323 322 322 321 321 319 317 317 310 303 311 317 318 318 318 318 317 315 314
330 330 330 331 331 330 330 328 328 327 324 324 324 326 327 326 327 329 327 326 328 327 326 327 326 326 325 317 318 324 325 326 326 327 327 327 328 327 327 327 327 327 327 326 326 326 325 325 324 324 325 324 323 322 322 322 322 323 323 323 323 323 323 324 324 323 323 322 321 320 320 317 316 316 308 303 313 317 316 317 317 315 312 310 309
329 329 330 330 331 330 330 329 328 327 325 322 324 327 328 326 326 327 327 325 325 326 327 328 327 325 322 316 317 323 325 327 328 328 328 328 329 328 327 327 327 327 327 327 326 325 325 324 324 325 325 325 324 323 323 322 322 323 323 323 324 323 324 324 324 322 322 322 321 320 318 315 315 315 307 304 312 315 315 317 314 308 302 301 301
330 329 329 330 330 330 330 329 328 328 325 322 322 326 328 327 324 324 324 323 321 323 325 328 328 325 321 318 317 319 323 327 329 329 329 328 329 328 328 327 327 327 327 327 326 324 323 324 324 324 324 324 324 323 323 322 322 323 324 324 324 324 325 324 323 322 322 321 321 320 315 312 314 314 305 300 305 307 310 311 306 298 294 294 295
332 330 329 329 330 330 329 329 329 328 326 322 320 322 327 327 325 322 321 321 319 320 322 325 326 324 322 321 319 318 320 325 329 329 329 329 329 328 328 328 327 327 327 326 326 324 323 324 324 324 323 323 324 323 323 322 322 323 324 324 324 324 325 324 322 321 322 321 320 318 312 311 313 312 304 298 297 297 298 300 296 293 294 294 294
333 332 330 329 329 329 329 329 329 328 327 324 320 320 324 327 326 324 321 320 319 318 319 321 325 325 324 323 323 321 320 322 326 328 328 328 328 328 328 328 327 326 326 326 326 325 323 324 324 324 323 323 323 323 323 323 324 324 324 324 324 325 325 323 321 321 322 321 319 317 311 309 311 310 306 301 299 296 293 294 293 294 294 293 294
334 333 332 330 330 329 329 329 329 328 327 326 323 320 322 325 326 325 323 322 320 320 319 319 322 325 326 324 324 324 322 322 323 326 328 328 327 327 327 327 327 326 326 326 325 324 323 323 324 324 324 323 323 323 323 324 325 324 324 324 324 325 324 322 321 321 321 319 317 315 309 305 308 309 307 306 304 299 294 294 294 294 293 293 293
334 333 333 332 330 330 329 328 328 328 328 327 325 324 323 325 327 326 326 324 322 322 321 319 319 322 325 324 324 324 324 323 322 324 326 327 327 326 326 327 327 327 327 326 325 324 324 324 324 324 324 324 323 323 324 324 324 324 323 323 324 324 323 321 321 320 318 316 314 312 307 303 305 307 308 307 306 302 298 296 295 294 293 293 293
334 333 333 333 331 330 329 328 328 328 328 328 327 327 327 327 327 328 328 327 325 324 323 322 320 320 323 324 325 324 324 323 323 322 323 325 326 325 326 327 328 327 327 326 326 325 325 325 324 324 325 325 324 324 324 324 324 323 322 323 323 323 321 320 320 319 316 314 312 310 306 302 302 306 307 306 305 303 300 297 296 294 293 293 292
334 333 333 333 332 330 329 328 328 328 328 328 327 327 328 327 327 328 328 327 326 325 324 324 323 322 322 324 325 324 323 323 323 323 322 322 323 325 327 328 328 328 327 327 326 326 325 325 325 325 325 325 325 325 325 325 324 323 322 323 323 322 321 320 320 318 315 312 310 307 305 303 301 302 304 305 304 302 299 297 294 294 293 292 292
333 333 333 333 332 330 330 329 328 327 327 327 327 327 327 327 327 327 327 327 326 326 325 324 324 323 322 323 323 322 322 323 323 323 323 322 321 323 327 328 328 328 328 327 327 326 326 326 325 326 325 325 326 325 325 325 324 323 321 321 322 321 320 320 319 318 315 312 307 303 305 306 303 300 299 299 299 297 297 295 293 293 293 292 292
333 334 334 333 333 331 330 329 329 328 327 327 326 326 326 326 326 326 326 326 326 325 324 323 323 323 322 321 321 320 321 322 323 324 325 324 321 321 325 328 328 328 328 328 327 327 326 326 326 326 326 326 326 325 325 324 323 322 321 321 321 320 320 319 317 315 313 309 304 302 305 307 305 303 299 296 295 295 296 295 293 293 292 292 292
334 334 334 333 334 333 332 331 329 329 328 327 326 325 325 325 325 325 325 325 325 324 324 323 323 323 322 321 320 321 322 324 325 326 326 326 324 322 324 328 328 328 328 328 328 327 326 327 327 327 326 326 326 325 325 324 322 321 321 321 319 319 322 320 315 312 310 306 302 301 305 306 305 305 302 299 297 297 297 297 294 293 292 291 291
334 334 334 334 334 333 333 332 331 330 329 328 326 325 325 325 325 325 325 325 325 325 325 325 324 323 322 322 322 323 325 327 327 328 327 328 327 324 325 327 328 328 328 328 328 327 327 327 327 327 327 326 326 325 325 324 323 322 321 321 319 320 324 320 315 312 309 306 301 300 303 305 305 305 304 302 299 297 298 297 296 293 292 291 290
334 334 334 334 334 334 334 333 332 331 330 329 327 326 325 325 325 324 325 325 325 325 325 325 325 324 323 323 324 326 328 329 329 329 329 329 328 326 326 327 328 328 328 328 328 328 327 327 327 327 327 327 326 325 325 325 324 323 321 321 320 321 321 318 316 313 308 304 298 298 301 303 303 304 304 303 299 296 297 297 296 293 291 290 290
333 333 334 334 334 334 334 333 333 333 332 330 329 327 325 325 324 324 324 324 324 325 325 324 324 324 324 324 326 328 330 331 330 330 330 330 329 328 328 328 328 328 328 328 328 328 328 327 327 327 327 327 326 325 325 324 323 322 321 321 320 320 319 316 315 314 310 305 299 297 301 301 302 303 303 302 299 295 296 297 294 292 291 290 289
332 332 333 333 333 334 333 334 334 333 333 332 331 329 327 326 326 325 325 325 324 324 325 325 325 325 326 326 327 329 331 331 331 331 331 330 330 329 329 329 329 328 328 328 328 328 328 328 327 327 327 327 326 325 325 323 322 321 321 321 320 319 319 317 314 312 310 308 304 300 300 300 300 302 302 301 298 294 294 295 292 291 291 290 289
332 332 332 332 332 333 333 333 333 333 333 332 332 331 329 328 328 327 327 326 326 326 326 327 327 327 327 328 328 329 331 331 331 331 331 331 331 330 330 330 329 329 329 329 329 328 328 328 328 327 327 327 327 326 325 323 322 320 320 320 320 319 318 318 315 311 309 309 308 302 300 300 299 300 300 300 298 295 293 292 291 291 291 290 290
331 331 331 331 332 332 332 333 333 333 333 332 332 332 331 330 330 329 329 328 328 328 329 329 329 329 328 329 330 330 331 331 331 332 332 332 331 331 331 330 330 330 329 329 329 328 328 328 328 328 327 327 327 326 325 324 322 322 321 320 320 318 316 315 314 312 308 307 308 303 300 300 299 298 299 298 298 296 295 293 291 292 291 291 290
331 331 331 331 331 331 331 332 332 332 332 332 332 332 331 331 330 330 330 330 330 329 330 330 330 330 330 330 330 330 331 331 331 332 332 332 331 331 331 331 331 330 330 329 329 328 328 328 328 328 328 327 326 326 325 324 323 323 321 321 320 319 317 315 314 313 307 305 307 304 300 299 298 298 298 298 298 298 297 295 293 292 292 291 291
Wind_Speed
15 15 15 13 12 12 12 13 13 13 13 13 13 14 16 17 17 16 16 16 16 14 13 14 16 16 16 17 17 16 17 18 18 17 17 17 18 18 18 19 19 18 18 18 17 16 16 16 16 17 19 19 18 18 19 20 20 22 21 21 20 20 21 23 22 20 20 22 22 22 22 22 21 21 21 21 20 20 20 21 21 22 21 20 20
17 17 15 14 13 12 12 13 13 13 13 13 14 16 17 17 18 17 16 15 15 15 14 14 15 15 16 17 17 17 17 17 17 17 17 17 18 18 18 19 19 18 17 17 17 16 15 15 16 18 19 19 18 18 19 21 22 23 23 22 20 18 17 19 19 19 18 19 21 22 22 21 21 20 21 21 21 20 20 21 21 21 21 19 19
17 17 16 15 14 13 13 13 13 13 13 13 15 17 18 18 18 17 16 16 15 15 16 16 15 16 16 17 17 17 17 17 17 16 16 17 18 18 18 19 19 18 18 17 17 17 16 16 17 18 19 19 19 19 20 22 23 24 23 22 22 20 18 17 17 19 19 19 21 22 22 21 20 20 20 20 20 20 21 20 19 19 19 19 19
18 18 16 16 15 14 14 14 14 13 13 14 15 16 16 17 16 16 16 16 16 16 16 16 16 16 16 17 17 17 18 18 17 17 16 17 18 18 19 19 19 18 18 18 17 17 17 17 18 19 19 19 20 20 22 23 24 23 23 22 22 21 19 19 18 19 21 21 21 21 21 21 20 19 18 19 19 19 19 18 18 19 18 19 19
18 18 17 17 16 15 15 15 15 14 14 14 15 15 16 15 15 16 17 16 16 16 17 17 17 17 17 17 17 17 17 17 17 17 16 17 18 19 19 19 19 18 18 18 18 18 17 18 18 19 20 20 21 22 23 24 24 23 22 21 21 21 20 19 19 20 22 22 21 20 20 20 20 18 17 18 18 18 18 18 18 18 18 18 19
19 18 17 18 17 16 15 15 14 15 14 15 15 16 16 15 15 16 16 16 16 16 16 17 17 17 17 17 17 17 17 17 16 16 16 16 17 17 17 18 18 18 18 18 17 17 17 18 18 19 20 20 21 22 23 24 23 22 21 20 21 22 21 19 18 19 21 21 20 21 23 22 20 18 17 17 17 17 18 17 17 18 17 16 19
18 18 17 17 18 17 16 15 14 15 15 16 16 16 15 14 16 16 15 15 15 15 15 16 16 17 17 17 17 16 17 17 16 17 16 16 16 17 17 17 17 17 17 17 17 17 17 18 18 19 20 20 20 22 23 23 23 22 21 20 20 20 20 19 17 18 19 20 19 21 24 24 23 20 18 17 17 17 17 17 16 17 18 17 18
17 16 16 17 18 18 16 16 15 16 16 16 16 14 14 15 16 16 15 15 15 15 15 15 15 16 16 16 16 16 16 16 16 17 17 16 16 16 17 17 16 17 17 17 17 17 17 18 19 19 20 20 20 21 22 21 21 21 20 20 19 19 18 16 17 17 18 19 19 21 23 23 23 22 20 19 19 18 18 18 18 17 17 18 18
16 15 16 17 17 17 16 16 15 15 16 17 16 13 14 16 15 15 15 15 15 15 15 15 15 16 16 16 16 16 16 17 17 17 16 15 15 16 17 17 16 16 17 16 16 17 17 18 18 18 20 20 20 21 21 20 20 20 20 19 18 19 18 17 16 16 17 17 19 21 21 20 21 21 19 19 19 19 19 19 18 18 17 17 17
15 15 16 16 16 16 16 16 14 14 15 16 16 14 14 16 15 13 14 15 15 14 14 14 15 15 15 15 15 15 15 16 16 15 15 15 15 15 16 17 16 16 16 16 16 16 16 17 16 17 19 20 21 21 20 19 19 18 18 19 18 18 18 17 15 14 15 15 16 18 18 17 17 17 16 17 17 17 18 18 17 16 16 15 15
15 15 15 16 16 16 16 16 14 14 14 15 15 14 13 14 15 13 14 15 14 14 14 14 14 14 14 15 15 15 15 15 15 14 14 14 15 15 15 16 15 15 15 15 15 15 14 15 15 16 18 19 19 19 20 20 19 18 18 18 18 18 18 16 15 14 13 13 13 14 15 15 15 14 13 14 14 15 15 15 15 14 14 14 14
15 14 15 16 15 16 17 16 15 13 13 14 13 13 12 13 15 14 15 15 14 14 14 14 14 14 14 14 14 15 15 14 14 14 13 14 14 14 14 14 14 14 14 14 14 14 13 14 15 16 18 18 18 17 17 18 18 18 17 17 16 17 18 17 15 13 13 13 12 13 14 14 14 13 11 12 12 13 13 13 13 13 13 13 13
16 13 13 16 15 16 17 17 16 14 13 14 13 13 12 13 14 14 14 14 14 14 13 13 13 13 14 14 14 14 14 14 14 14 13 13 13 13 14 13 13 13 13 13 13 13 12 13 15 16 16 17 17 16 15 16 16 16 16 16 16 15 15 15 14 12 12 13 12 11 11 13 14 13 10 10 10 11 11 12 12 12 12 12 12
16 12 13 16 15 17 18 17 16 14 13 13 13 13 12 13 14 14 14 14 14 14 13 12 12 13 13 13 13 14 14 14 13 13 12 11 12 12 12 12 11 12 12 13 12 12 12 13 15 15 15 15 16 16 15 15 15 15 15 15 14 14 14 15 14 12 11 12 11 9 9 10 12 12 10 9 9 9 10 11 11 11 10 11 11
15 11 13 16 16 18 18 16 15 14 13 13 13 13 13 12 12 13 13 15 15 14 13 12 12 13 13 12 12 12 12 13 13 12 12 11 11 11 11 11 10 10 10 10 11 12 12 13 14 14 14 14 14 14 15 15 14 15 15 14 13 14 14 14 13 10 9 11 12 9 7 8 9 11 11 10 9 9 10 11 11 10 10 11 11
13 10 13 16 16 19 18 17 16 14 13 13 12 12 14 13 11 11 12 14 15 14 13 12 12 13 13 12 12 12 11 12 12 12 11 11 11 11 11 10 10 9 9 9 9 11 12 12 12 12 12 13 13 13 14 14 14 14 13 13 12 13 13 12 11 9 7 8 12 12 9 8 7 10 12 11 11 11 11 11 11 11 11 11 12
12 10 12 15 17 19 19 17 16 14 13 12 12 12 14 14 12 11 12 13 13 12 12 13 13 13 14 13 13 14 13 12 11 11 11 11 11 10 11 10 10 9 9 9 9 10 10 10 10 11 11 12 12 12 13 13 13 13 12 12 11 11 11 11 9 8 8 7 10 12 11 10 8 9 11 12 12 12 11 11 11 11 11 11 12
13 10 11 16 18 18 18 17 15 15 13 12 11 11 14 15 13 12 12 12 12 11 12 14 14 13 12 12 13 13 13 12 11 11 11 11 11 11 11 10 10 10 9 8 8 9 9 9 9 10 10 11 12 12 13 13 13 12 12 12 11 10 10 10 7 6 7 7 8 10 12 12 10 10 10 11 11 11 12 11 12 12 12 12 12
13 11 12 15 17 17 17 16 16 16 14 12 12 12 13 14 14 12 11 11 11 10 12 14 14 11 10 10 10 11 11 11 10 9 9 10 9 10 10 9 9 8 7 7 7 8 8 8 8 9 10 11 13 14 15 15 13 12 12 12 12 11 9 9 6 4 6 8 7 8 12 12 10 9 8 9 10 11 11 11 11 12 12 12 12
14 13 12 14 16 16 16 16 16 16 14 14 13 14 14 14 14 13 11 11 11 10 11 14 13 11 9 9 8 10 10 10 9 8 9 9 8 9 8 8 8 7 6 6 8 8 8 8 8 9 10 12 14 15 15 15 13 11 10 11 12 10 10 9 7 5 6 8 8 9 12 13 10 7 7 8 9 10 10 10 11 11 11 12 12
16 15 13 14 15 15 16 16 16 16 15 15 14 15 16 15 14 13 12 11 11 12 12 13 13 11 9 8 7 8 10 10 8 7 8 8 8 8 7 6 7 7 7 8 8 8 7 7 8 9 10 11 12 13 13 12 11 10 9 9 9 9 8 7 7 7 7 8 9 10 12 13 10 7 7 8 8 9 9 9 10 10 10 11 13
16 17 16 16 16 15 16 16 17 16 15 15 15 16 17 16 15 14 13 12 12 13 14 13 12 11 9 7 6 7 9 9 8 7 7 7 8 8 7 6 6 7 7 7 7 8 7 8 8 9 10 9 10 10 10 8 8 7 7 8 7 7 7 5 6 7 8 9 9 11 12 12 10 8 7 8 8 8 8 8 9 9 10 12 13
17 20 19 19 18 15 16 17 17 17 16 15 14 16 18 18 16 15 14 13 13 14 14 13 12 10 10 8 8 8 7 7 7 6 6 7 7 7 7 7 7 6 6 7 7 8 8 8 8 8 8 8 7 8 7 6 6 6 6 7 6 5 5 5 5 6 7 8 8 10 12 12 10 8 7 7 7 7 7 8 9 10 11 13 14
20 21 19 19 19 16 16 16 17 19 18 16 14 15 17 18 17 17 15 15 14 14 14 13 12 11 11 10 9 9 7 6 5 4 6 6 7 7 8 8 8 7 7 8 8 8 8 8 8 7 7 7 7 5 5 4 4 5 5 5 4 4 4 5 4 5 6 7 8 9 11 12 10 7 6 6 6 7 8 9 10 11 13 15 14
21 21 21 20 19 17 16 16 19 21 20 18 15 14 16 18 18 18 17 16 15 14 14 13 13 12 13 12 10 10 9 7 6 5 6 7 7 7 8 9 9 9 9 9 9 9 9 9 7 7 6 6 5 3 2 3 1 3 4 4 4 3 3 4 4 4 5 6 8 8 11 11 8 6 7 6 7 8 8 9 10 11 13 14 14
22 22 24 23 21 19 17 18 20 22 20 19 16 13 15 18 19 18 18 17 16 15 14 14 14 14 16 13 10 12 12 10 8 8 8 8 8 8 9 10 10 9 9 9 10 10 9 8 6 5 4 4 2 1 1 3 2 2 3 2 4 4 2 4 4 5 4 5 6 8 11 9 8 8 8 7 8 8 8 9 10 11 13 14 15
26 26 27 26 25 23 20 21 22 22 19 18 16 14 16 19 18 17 17 17 16 16 15 14 13 15 18 14 12 15 15 13 11 10 10 9 8 9 9 10 10 9 9 9 10 9 7 5 5 4 3 3 2 1 1 2 3 3 3 1 4 5 2 3 4 4 3 4 5 8 10 8 8 9 8 8 8 8 8 9 10 11 14 15 15
29 28 28 27 27 27 25 23 24 23 20 19 18 16 17 19 18 16 16 15 15 17 17 15 14 14 17 15 14 16 16 14 13 12 11 9 8 8 9 10 10 8 8 8 7 6 5 4 3 2 2 2 3 1 3 1 1 2 3 1 5 5 0 1 3 3 3 3 5 7 9 8 8 8 7 7 7 7 7 9 10 12 15 15 15
31 30 29 28 28 29 29 27 26 25 22 21 20 19 19 19 20 19 17 16 16 17 17 16 16 16 17 16 14 15 15 14 13 13 12 9 8 8 8 8 8 6 6 7 6 4 3 2 0 1 2 1 1 1 3 1 3 2 2 2 4 3 2 2 3 2 3 3 4 6 7 7 8 8 7 7 7 7 9 12 12 13 16 16 16
32 30 30 30 28 28 30 30 29 28 25 22 20 21 21 20 21 21 19 18 17 17 18 18 18 18 19 18 15 14 15 13 11 12 13 10 9 8 8 7 6 5 5 5 5 4 3 4 4 4 4 4 3 1 2 4 5 3 3 2 2 3 3 3 4 1 2 2 4 4 5 6 7 8 9 8 8 11 13 14 14 15 17 16 17
32 31 31 29 29 29 30 31 30 29 28 25 22 21 23 22 21 21 21 20 18 17 18 19 19 18 19 20 16 14 14 13 11 12 13 12 10 10 9 9 8 6 5 5 5 6 6 7 7 6 6 6 6 5 5 6 5 2 3 2 3 3 3 1 2 0 1 1 3 3 3 5 6 7 9 9 11 15 15 15 15 16 17 17 16
34 33 33 31 30 31 30 32 32 30 30 29 26 24 24 24 22 22 23 22 20 18 19 19 19 18 18 20 19 16 15 13 12 12 12 12 10 9 10 10 10 9 8 7 8 8 8 8 8 7 6 6 6 7 7 6 4 4 4 3 2 2 3 1 2 1 2 2 1 1 2 4 5 6 8 9 14 16 16 17 17 17 17 17 16
34 34 33 33 33 33 32 32 32 31 30 31 30 27 25 25 26 24 24 24 23 21 20 20 20 20 18 19 21 19 18 16 14 13 12 13 12 10 11 11 10 11 11 10 10 10 9 9 9 9 8 6 3 2 4 5 4 4 5 5 3 2 1 1 2 2 4 4 2 3 1 2 3 6 8 11 16 17 17 18 18 17 17 17 17
33 33 33 34 34 34 34 33 33 32 30 31 31 29 26 26 28 27 25 26 26 25 23 22 22 21 20 20 21 21 20 19 17 15 14 15 15 12 12 12 12 13 13 12 11 10 10 9 9 10 10 9 7 4 5 5 2 3 6 5 4 3 1 2 4 4 6 5 3 3 0 1 3 5 7 12 16 17 18 18 17 17 16 16 17
31 33 35 34 34 34 34 34 34 33 31 31 32 31 27 26 29 28 26 26 27 27 26 25 24 23 21 20 21 22 22 22 20 18 17 17 17 16 14 15 14 14 14 13 11 10 10 10 8 8 7 8 8 7 6 6 4 4 5 4 4 3 2 3 5 6 7 6 5 3 1 4 4 5 8 13 15 17 18 18 17 16 16 16 15
32 32 34 34 35 35 35 35 35 34 33 32 32 32 30 27 28 28 27 27 28 29 28 26 24 24 23 22 22 22 23 23 23 22 21 20 20 18 17 17 17 17 16 14 13 10 10 9 8 9 8 8 8 5 5 7 7 6 5 5 4 3 2 5 7 7 8 6 5 3 3 6 6 5 9 13 15 15 16 16 15 15 15 15 14
36 33 33 35 35 35 36 36 36 36 35 34 33 34 33 30 29 28 28 28 28 29 29 27 25 25 25 24 23 23 24 24 24 24 23 23 22 21 20 19 18 18 17 16 15 12 11 11 10 10 9 9 10 7 5 6 7 8 7 6 5 3 3 7 9 7 8 7 5 4 4 7 8 7 8 11 13 13 14 14 13 13 14 14 14
39 36 34 35 36 36 36 37 37 37 36 35 35 35 35 33 31 30 29 29 29 29 30 29 28 27 27 26 25 23 24 25 26 25 24 23 23 23 22 20 18 18 19 19 17 13 12 13 12 11 9 8 10 10 7 6 7 7 7 7 6 3 5 9 9 7 8 7 7 5 5 8 9 9 9 9 10 11 12 11 11 11 13 14 14
38 38 36 35 36 37 37 37 37 37 37 36 35 35 35 35 33 31 31 30 31 31 30 31 31 30 29 28 27 25 24 24 26 27 26 25 24 24 22 21 20 20 21 21 19 15 15 15 14 13 11 10 11 11 10 9 9 8 7 8 7 5 8 11 8 8 8 8 8 6 6 9 10 10 11 10 9 9 10 9 8 9 11 13 14
36 37 36 35 37 38 37 38 38 37 37 35 35 35 35 35 34 33 33 33 33 33 32 31 32 32 32 30 29 27 26 25 25 27 28 28 27 25 23 23 22 21 23 23 20 18 18 18 17 15 13 13 13 12 11 9 8 8 8 9 7 7 11 11 9 8 9 9 8 7 7 8 11 13 12 11 10 9 8 7 7 8 10 12 13
34 36 36 35 37 38 39 40 40 39 38 38 37 37 36 36 35 36 36 35 35 34 33 33 32 33 33 32 31 29 28 27 26 26 28 30 29 28 25 25 24 23 24 23 22 20 20 19 19 17 16 15 15 13 12 10 7 7 8 8 7 10 12 10 9 10 10 10 8 8 9 9 10 13 13 12 11 9 8 7 6 7 9 11 13
34 37 38 37 36 38 40 41 41 41 41 41 40 40 39 38 37 37 36 35 35 35 35 34 33 32 32 33 33 31 30 30 28 28 28 30 31 31 29 27 27 27 26 24 23 21 22 22 20 19 18 17 16 15 15 11 9 8 7 6 5 10 12 11 11 12 11 10 9 10 11 10 10 11 12 13 12 11 9 7 7 7 8 10 12
36 37 38 38 36 37 39 40 41 41 42 42 42 42 41 40 38 37 36 35 35 36 36 34 33 33 32 33 33 33 33 32 31 30 30 31 32 32 32 31 30 29 28 27 25 24 24 24 23 22 20 18 16 15 16 15 12 10 6 5 4 6 7 9 12 13 11 10 9 11 13 12 11 10 10 11 12 11 10 8 7 6 7 9 11
35 36 37 38 38 38 39 40 41 41 42 42 43 43 41 39 38 36 36 35 34 35 35 34 34 34 34 34 35 35 34 34 32 32 31 31 32 33 33 33 32 30 30 29 28 27 27 26 25 24 23 21 18 17 18 18 16 12 6 3 4 5 3 6 11 12 11 10 8 11 14 14 13 11 10 9 9 10 9 8 6 5 6 7 10
36 36 37 39 40 42 41 40 40 41 41 42 43 41 39 37 36 32 30 31 30 31 33 35 36 37 37 37 37 36 35 35 34 33 32 31 32 33 34 34 33 31 31 31 30 29 28 28 27 25 26 24 21 19 19 20 19 17 12 5 4 3 3 8 11 8 11 11 8 11 14 14 14 13 11 10 9 8 8 7 5 4 4 6 9
38 40 41 41 42 42 41 40 40 41 41 41 41 40 39 37 36 33 30 30 30 32 37 39 39 40 40 39 38 37 37 36 36 35 34 33 33 34 34 35 35 33 32 31 31 30 28 29 28 27 27 26 23 22 21 22 20 19 19 13 7 3 5 13 10 3 7 9 8 11 14 14 14 14 13 11 10 9 8 6 5 3 3 5 8
40 42 42 42 42 41 40 41 41 42 42 41 41 41 40 39 38 38 37 35 34 37 40 40 40 40 40 39 39 39 39 38 38 37 36 35 35 35 35 36 36 35 34 33 32 31 29 30 30 29 28 26 25 24 22 23 21 19 21 19 13 8 8 15 9 4 6 5 8 11 13 13 13 15 15 13 12 11 9 7 5 3 2 5 8
41 41 40 42 43 41 41 42 42 42 42 41 41 42 42 40 40 39 38 39 39 38 38 38 39 39 39 39 40 40 41 41 40 39 38 37 37 37 36 36 37 37 35 35 34 32 30 30 30 30 29 27 27 27 24 24 23 21 20 19 15 12 11 14 12 11 7 3 6 8 11 12 12 14 14 13 13 12 11 8 5 4 2 4 8
40 39 40 42 44 44 42 41 42 42 41 41 42 43 44 42 40 39 38 40 40 37 34 35 37 37 38 39 40 40 41 41 41 41 40 39 39 38 37 37 38 38 37 36 35 33 32 31 31 31 30 28 28 28 27 26 26 24 21 19 16 13 13 13 13 13 8 6 5 5 11 13 10 13 14 13 13 11 11 10 6 4 2 4 7
37 37 39 40 40 42 41 40 42 42 42 41 42 43 44 42 40 39 39 39 38 34 31 32 35 36 37 38 39 39 40 41 41 41 40 40 40 39 39 39 39 39 38 37 36 35 34 33 32 31 31 29 29 29 28 27 28 27 24 22 20 16 13 12 14 14 10 8 6 7 15 16 11 13 14 15 15 12 12 10 6 3 2 3 6
35 35 35 36 36 37 39 40 42 42 41 41 41 42 43 43 43 42 41 40 38 34 31 32 33 34 36 38 38 38 39 40 40 40 41 40 40 40 40 40 40 40 40 39 38 37 35 34 32 32 32 31 31 30 29 28 28 28 26 25 25 22 18 16 20 21 15 10 8 8 15 18 15 16 16 15 15 13 12 10 6 3 0 2 5
Wind_Direction
153 149 142 143 139 137 133 129 122 115 108 99 92 88 90 90 95 96 100 104 96 93 100 98 92 90 90 87 85 86 86 87 87 86 87 86 87 88 86 84 84 83 84 84 83 83 80 79 78 77 74 72 74 74 75 75 77 80 79 74 73 73 72 70 67 69 74 74 70 69 68 67 65 65 65 63 63 64 61 61 62 63 62 58 55
153 148 143 143 141 139 133 128 122 116 108 101 95 93 94 93 95 94 99 104 97 95 100 101 99 98 96 93 91 89 88 91 91 92 93 91 90 90 87 85 85 83 85 86 83 83 82 80 77 75 73 72 75 76 78 80 83 86 85 82 79 78 80 78 72 63 67 77 77 73 70 68 67 66 64 62 63 66 63 60 62 61 59 57 54
151 148 144 143 141 139 134 128 122 116 109 104 100 97 96 97 99 99 99 99 99 99 99 101 102 102 100 96 94 92 92 93 92 95 98 95 93 88 85 88 88 86 86 85 83 83 81 80 78 76 74 74 77 80 85 88 90 91 91 89 86 85 86 88 81 63 59 70 79 81 78 71 67 66 65 63 63 65 64 59 59 59 56 54 53
150 147 145 144 141 139 135 130 123 117 112 107 104 103 104 104 105 105 102 102 101 100 100 101 101 102 101 100 98 98 96 95 95 98 99 98 96 88 86 89 89 87 85 83 82 81 80 79 79 77 76 76 80 86 92 94 92 91 91 90 87 86 90 91 81 64 60 66 72 78 81 78 70 66 65 63 63 62 60 58 59 58 55 55 52
148 147 146 144 142 141 137 131 125 120 113 110 110 111 112 106 105 106 105 104 102 101 101 100 100 101 102 102 101 99 96 97 97 96 96 94 93 89 87 89 90 88 87 85 83 81 80 77 77 78 77 79 84 90 94 95 91 89 89 89 85 81 88 90 77 69 68 69 67 65 74 80 75 67 64 62 61 60 58 58 57 54 55 55 49
148 146 147 145 143 141 137 132 127 123 115 113 113 112 111 105 107 108 104 103 103 101 99 98 99 101 103 104 102 100 98 98 98 96 95 94 93 92 91 91 90 90 89 88 86 84 82 79 79 80 78 79 86 93 95 94 91 89 89 90 86 80 84 86 81 79 76 72 64 62 69 73 72 66 62 61 60 59 59 57 55 51 51 50 48
148 146 147 145 143 140 137 135 132 125 118 116 113 110 112 109 110 110 106 104 104 104 103 102 100 101 104 106 104 101 99 99 100 98 97 99 100 100 96 93 90 89 89 89 88 87 85 83 81 80 80 81 86 93 96 94 91 89 89 89 87 80 80 84 83 85 79 69 61 63 67 66 67 65 60 59 59 58 58 57 55 52 50 47 49
147 147 147 145 143 141 139 138 134 127 120 118 114 112 114 112 111 113 111 108 108 106 106 106 104 106 109 109 107 104 101 100 100 99 98 99 100 99 95 93 91 89 88 88 87 87 86 84 82 82 83 86 89 94 97 96 93 89 89 90 90 83 81 83 84 85 78 68 62 67 68 62 60 60 58 57 57 58 58 58 56 54 52 48 47
149 149 148 148 144 142 141 138 135 129 124 120 118 115 114 114 114 116 113 110 110 108 108 107 106 108 110 110 110 107 102 101 103 102 101 101 100 98 96 95 94 92 90 90 88 87 86 83 83 83 85 90 94 98 100 99 96 93 92 94 95 89 84 83 83 81 77 72 70 74 73 64 58 55 54 54 56 55 54 54 53 52 50 47 45
150 151 152 151 146 144 141 139 138 133 129 124 123 123 121 119 119 120 116 112 110 110 110 108 109 108 109 113 114 111 105 104 106 105 103 104 104 102 102 100 97 95 93 92 90 89 88 86 84 85 86 91 96 99 101 101 99 97 96 96 96 91 84 78 76 76 78 74 72 79 79 72 62 53 50 50 52 52 51 50 48 48 45 44 41
152 150 154 153 148 146 144 143 141 138 134 127 127 130 127 124 124 125 121 116 111 111 112 112 114 114 114 116 117 114 110 107 107 108 104 104 103 103 102 100 99 96 95 94 93 91 89 89 87 87 87 90 95 98 98 97 95 93 95 96 96 93 86 80 75 73 72 66 66 79 79 73 65 52 48 48 49 51 50 49 46 44 41 38 38
152 149 153 155 151 148 148 146 145 144 137 129 128 127 124 128 130 128 123 120 117 115 117 118 118 119 118 117 118 117 113 109 107 107 106 105 103 102 101 99 101 99 97 97 96 95 92 90 88 87 87 88 90 95 97 95 93 89 88 89 92 96 91 82 78 72 63 58 68 82 78 72 63 48 46 48 50 50 48 47 43 40 38 36 35
150 151 157 159 153 151 152 149 150 148 139 132 131 129 126 126 127 128 125 125 124 122 124 126 126 123 120 120 121 118 115 113 111 109 108 111 109 107 107 105 106 104 103 101 101 100 96 91 89 86 85 85 86 89 94 95 93 89 87 86 84 91 93 82 76 75 62 53 62 79 80 75 61 47 51 50 46 46 45 44 38 36 35 34 31
152 154 160 162 155 155 156 154 154 149 143 137 134 135 131 126 128 134 133 131 128 128 129 128 127 124 122 121 121 122 119 117 114 110 110 113 113 111 110 110 112 112 110 110 108 104 98 92 87 85 83 82 82 83 87 94 96 93 91 91 83 82 90 85 75 69 59 48 49 66 76 71 58 43 48 50 40 42 44 39 32 28 27 23 19
157 155 161 164 158 158 161 158 156 152 148 140 138 138 134 133 138 144 142 139 134 132 133 132 128 124 122 118 119 123 121 122 122 118 112 110 113 111 109 110 113 115 116 118 113 105 98 91 86 83 81 79 79 79 81 88 98 100 95 92 85 77 82 83 73 60 51 48 44 44 47 48 45 33 29 36 38 41 41 33 26 20 14 10 7
160 157 165 167 161 162 165 162 160 158 153 144 142 141 140 144 147 147 146 145 142 140 140 140 135 129 126 123 125 124 123 128 129 125 117 112 114 113 111 111 113 114 114 115 109 103 96 90 87 83 81 78 76 77 77 82 92 101 97 93 89 80 76 73 67 55 46 48 41 33 31 27 27 28 21 25 32 35 38 28 23 15 8 6 4
160 158 166 170 166 166 168 165 164 163 160 151 146 148 151 154 158 156 150 149 148 148 146 143 140 139 139 141 142 136 134 138 136 136 132 126 124 120 116 115 119 121 120 119 110 102 96 90 87 83 79 77 75 76 75 79 88 94 92 87 87 86 76 68 66 55 42 37 34 29 29 23 20 29 20 19 24 29 33 22 17 13 7 8 2
157 159 166 172 170 171 171 167 167 166 164 159 153 158 164 165 169 168 160 158 157 155 153 151 152 152 148 149 153 151 149 146 145 146 146 144 139 134 129 125 130 135 134 129 115 103 99 94 88 85 81 79 78 77 74 75 80 82 79 72 73 83 79 69 66 54 34 22 22 20 17 15 23 33 21 16 16 21 26 17 13 8 8 11 0
160 158 159 171 175 176 175 171 170 169 169 169 166 169 174 176 177 177 170 166 164 161 161 162 165 162 153 151 155 159 158 151 149 150 152 152 147 147 146 142 144 148 144 134 121 110 104 98 94 92 87 86 84 80 75 73 75 75 68 61 62 74 77 64 55 42 23 16 17 10 8 9 24 33 23 18 13 18 23 14 10 8 8 6 358
163 158 155 171 179 180 180 178 175 174 176 175 175 178 179 180 180 182 177 172 170 165 164 166 168 166 161 161 161 166 170 163 159 161 162 161 158 157 157 155 157 159 150 132 123 117 109 104 100 97 95 93 90 83 77 73 73 74 67 61 61 64 63 54 47 41 20 13 15 9 6 11 21 26 19 17 16 22 20 11 13 11 5 1 5
163 164 163 171 178 183 186 184 181 182 183 181 181 183 184 183 181 183 183 182 178 172 170 167 167 166 162 161 162 171 178 178 177 176 176 176 174 172 169 162 155 149 134 122 117 116 114 109 102 100 102 96 91 84 75 73 71 72 70 62 61 57 51 45 37 32 19 9 9 7 4 8 17 20 16 16 18 23 18 14 15 11 8 10 17
168 169 173 178 178 183 189 188 186 190 190 186 186 186 187 188 184 184 186 190 185 180 178 173 168 163 157 149 147 160 172 182 188 186 183 180 178 178 175 164 149 139 127 121 119 120 117 113 107 103 103 95 93 85 69 68 68 72 77 63 56 53 46 30 20 16 10 6 1 2 360 1 10 16 19 18 19 21 20 19 18 18 21 24 28
172 170 176 184 185 184 187 189 189 193 194 189 188 189 190 191 189 187 188 190 187 184 184 182 176 167 158 150 151 158 166 179 182 187 189 181 177 175 170 163 156 147 136 132 127 127 123 117 114 108 102 92 90 83 65 64 69 76 81 66 49 49 40 15 18 11 359 2 357 355 356 357 360 7 20 22 19 25 29 27 29 30 32 34 33
176 173 177 180 186 187 185 187 191 196 196 193 190 191 192 193 192 190 190 190 189 189 190 190 188 181 165 161 172 177 186 194 184 191 189 178 175 173 169 165 161 155 146 141 138 134 129 122 116 109 102 94 88 79 63 56 70 76 67 49 26 36 31 15 42 33 2 353 350 350 351 352 353 3 27 29 29 40 42 39 40 36 37 41 36
177 177 180 180 183 186 186 189 197 200 198 197 194 194 196 195 195 194 193 193 193 195 196 198 198 191 172 169 190 193 196 205 207 207 186 169 165 167 169 167 160 155 152 148 145 139 134 130 119 110 104 100 93 66 53 48 70 74 43 20 14 28 30 25 36 10 356 346 343 347 349 353 7 32 46 45 46 52 52 48 46 39 40 47 46
181 182 185 187 187 185 189 193 200 201 197 199 198 202 204 197 197 196 197 198 199 200 198 197 195 188 176 177 196 194 197 211 219 212 182 161 156 157 161 164 161 156 157 153 148 141 137 130 117 113 105 103 98 38 69 59 73 62 22 32 34 30 13 3 351 339 350 354 347 351 355 8 46 61 60 57 55 52 55 54 47 43 47 56 57
186 188 189 190 191 188 192 196 199 199 197 201 202 207 207 198 197 197 200 201 203 203 197 192 188 182 179 185 195 197 208 219 220 206 179 161 154 152 153 157 158 156 156 152 148 141 133 120 105 117 100 64 10 292 181 60 67 29 5 84 19 353 323 352 10 11 5 1 354 355 3 27 57 66 68 60 58 52 54 56 51 53 59 64 66
188 191 192 191 191 188 192 196 199 201 202 204 207 209 202 199 202 203 202 201 199 199 195 193 195 189 186 191 197 207 218 217 211 198 176 163 156 153 152 155 155 157 154 145 145 137 125 113 91 111 111 46 2 314 188 125 56 352 347 19 352 346 313 40 47 35 15 25 8 358 8 32 47 57 67 62 63 57 60 66 63 66 69 71 73
188 191 193 194 194 190 191 195 198 203 205 206 212 211 202 202 207 206 204 202 199 196 194 195 201 199 195 199 203 213 215 204 198 187 172 163 163 167 162 159 155 156 159 149 147 149 144 151 117 248 256 242 316 314 177 231 296 286 297 293 357 31 96 98 111 50 8 39 20 6 14 27 34 41 56 65 74 73 75 77 74 76 76 76 73
189 190 193 196 197 194 195 197 199 203 206 207 210 210 203 202 206 207 204 204 205 202 198 198 205 204 198 203 205 204 201 191 187 182 173 172 181 187 179 173 168 163 176 175 167 180 203 224 235 239 252 235 231 216 192 281 278 242 255 259 33 77 87 70 127 100 347 30 30 22 17 19 27 36 47 62 84 86 85 85 82 82 81 77 73
189 189 193 197 197 197 199 201 202 203 204 206 207 207 204 202 206 209 205 202 206 208 202 201 208 207 202 205 200 189 191 190 189 185 175 178 190 193 189 187 188 189 194 195 189 202 218 224 230 235 247 248 246 251 262 273 250 225 241 192 61 80 112 87 155 120 15 71 39 29 22 21 26 36 45 64 91 91 90 92 90 86 82 78 74
192 192 194 195 196 198 201 203 206 204 202 203 203 205 206 203 205 210 207 201 203 206 203 203 209 211 209 206 196 184 188 195 195 189 183 185 190 192 193 189 194 202 203 205 208 218 229 228 231 237 244 251 258 260 253 248 252 278 241 180 74 99 131 165 226 117 127 133 90 100 43 20 31 41 46 76 97 95 96 98 94 89 82 77 72
197 197 196 196 196 198 201 203 207 207 204 201 200 203 206 203 203 210 211 204 202 202 201 204 209 213 213 205 195 187 189 197 199 196 195 195 194 192 194 191 195 202 203 211 219 230 239 236 236 239 243 242 247 254 215 227 278 283 211 169 131 155 135 205 210 130 136 148 156 151 58 13 48 52 54 92 104 100 102 100 95 92 84 79 74
201 199 198 197 197 198 200 201 204 207 206 203 200 201 204 203 203 208 211 207 204 200 198 203 210 213 211 203 197 193 191 195 200 203 202 202 204 203 200 197 198 202 209 219 227 238 239 237 240 239 241 238 238 245 222 226 257 176 168 158 157 184 234 199 171 135 145 157 164 167 104 100 97 67 76 106 114 109 106 103 101 97 87 80 74
204 201 201 200 198 199 199 200 202 205 206 203 201 201 204 204 204 208 211 208 205 202 199 203 209 212 209 205 202 200 197 195 197 202 203 204 208 209 206 202 203 209 218 225 230 238 231 229 232 225 223 222 231 245 233 225 215 186 183 191 192 201 222 179 162 149 156 164 165 173 162 144 126 94 100 109 114 115 114 113 110 98 84 78 71
206 204 203 201 201 201 201 201 202 204 205 204 203 201 203 206 207 209 210 208 207 204 204 205 207 208 208 210 208 204 204 201 199 201 203 205 207 209 208 208 213 218 222 225 228 230 224 222 221 220 223 216 212 215 213 211 205 203 217 226 208 214 221 170 163 156 158 167 171 170 154 150 141 125 120 113 111 115 119 119 111 94 80 73 67
208 206 204 203 203 204 204 203 204 205 205 205 204 202 202 206 210 210 209 209 208 206 207 208 206 205 209 213 213 210 208 206 205 204 206 209 210 212 213 215 218 219 221 222 223 224 216 214 216 219 226 222 209 202 206 201 190 197 217 219 199 215 217 170 163 158 166 176 171 159 153 158 155 147 139 125 119 119 120 119 110 93 78 68 63
209 208 207 206 206 206 206 206 206 206 207 206 204 204 203 205 210 212 211 211 211 211 209 211 210 207 209 214 216 216 213 211 210 209 211 214 215 215 217 216 212 214 218 217 219 221 209 206 215 217 216 219 211 205 215 213 200 211 224 210 192 203 190 171 167 162 171 178 168 158 155 161 164 162 154 140 132 130 127 124 117 97 75 63 58
210 209 209 210 208 208 208 207 207 207 207 207 205 205 204 205 209 212 213 213 214 215 214 213 213 210 211 215 218 219 218 217 215 214 215 217 217 216 216 213 209 213 215 214 217 216 205 205 215 215 207 213 212 208 222 228 222 231 234 208 192 185 173 168 168 166 167 171 167 166 156 158 165 167 161 152 146 142 135 131 122 97 73 59 52
210 209 209 210 209 208 207 206 207 207 206 206 204 204 204 205 207 209 211 213 215 217 218 218 216 213 213 215 219 220 222 221 219 219 218 219 220 218 215 211 212 214 211 213 217 213 207 208 215 215 206 206 212 217 229 233 230 233 223 206 194 177 173 170 167 163 164 168 169 170 162 153 159 164 161 156 154 150 140 132 116 89 70 56 49
209 208 208 209 208 206 206 206 207 206 205 205 203 203 203 203 205 207 209 212 214 217 219 220 219 217 216 216 219 222 223 223 223 222 221 222 222 220 215 211 213 215 213 216 220 215 212 212 214 217 215 210 212 216 222 225 226 225 208 202 199 175 172 171 166 165 168 173 177 176 166 151 154 162 163 163 161 156 146 132 108 83 65 52 46
206 207 207 208 207 206 207 208 206 205 207 207 205 204 204 205 205 208 210 211 214 216 219 221 222 221 219 219 221 222 224 224 224 224 224 224 222 220 216 212 214 217 219 221 222 219 216 217 216 217 218 217 216 213 213 214 209 212 195 169 172 167 165 164 164 171 176 180 184 177 168 157 153 159 163 163 160 155 151 138 112 85 63 48 43
207 207 207 207 207 207 209 209 208 207 208 209 209 208 208 208 209 210 211 213 216 219 222 224 224 224 223 222 222 223 224 224 225 226 226 225 223 220 217 215 216 217 220 221 222 219 217 219 218 218 216 215 217 211 210 210 199 195 175 146 161 156 157 165 163 168 178 187 187 172 169 166 160 160 161 157 150 146 144 137 115 88 61 42 38
207 207 206 206 207 209 210 210 210 211 211 211 212 212 211 210 212 214 216 216 219 221 223 226 226 225 225 223 223 224 223 224 225 225 226 226 224 222 219 218 218 219 220 221 220 218 217 219 219 219 215 210 210 207 207 208 200 191 172 145 163 155 176 181 162 161 172 181 189 175 171 170 165 165 166 159 149 144 140 134 114 87 60 36 31
206 207 207 207 208 211 212 212 212 212 213 214 214 213 212 212 211 213 216 216 218 219 218 221 223 223 223 222 222 222 223 224 225 225 227 227 225 223 221 219 219 220 221 222 222 220 219 220 220 218 216 213 210 206 204 205 207 208 201 172 143 162 209 172 154 159 172 174 187 184 176 172 171 173 173 166 157 151 147 137 118 92 60 30 25
207 208 208 209 210 211 211 211 212 213 215 215 214 212 212 212 210 208 209 209 212 214 214 216 218 219 221 220 220 221 222 223 224 225 227 227 226 224 222 221 220 220 222 224 224 223 222 221 221 220 219 220 216 210 204 203 210 218 216 209 201 225 183 161 152 151 170 171 178 179 179 177 176 178 176 171 167 163 159 148 130 110 70 30 22
209 209 209 210 211 212 211 211 212 213 214 214 213 212 212 213 212 211 211 210 212 217 218 219 219 220 220 219 219 220 220 221 222 225 227 227 226 224 224 223 222 222 224 225 226 225 224 222 222 223 224 224 220 214 207 203 205 213 219 219 225 242 184 166 165 153 155 174 175 170 174 176 178 180 179 178 176 170 167 163 145 130 102 36 23
210 209 208 209 211 211 211 211 212 214 214 213 212 212 212 213 214 214 216 216 218 221 220 220 220 220 219 219 219 218 219 220 222 224 225 226 225 224 224 224 224 224 225 227 227 227 227 224 223 225 227 226 222 218 212 205 204 206 210 215 225 234 202 183 180 169 154 154 173 169 167 170 177 181 183 185 183 175 169 168 153 136 115 41 23
212 211 210 210 211 211 211 212 212 214 214 213 212 212 213 213 214 215 218 221 223 225 223 220 219 219 218 219 219 218 219 220 221 223 224 225 225 224 224 224 224 225 226 227 227 227 227 224 223 224 226 226 223 221 216 212 210 208 207 209 214 219 212 208 198 184 166 151 174 185 166 164 172 180 186 189 186 179 173 170 157 134 93 35 16
214 214 213 213 212 210 210 211 213 215 215 214 213 213 214 214 215 217 219 223 224 224 224 221 219 217 218 219 219 219 219 220 221 222 223 224 224 225 224 224 224 224 226 227 226 226 226 224 224 224 224 224 221 219 219 219 217 215 214 210 204 201 201 205 203 195 183 168 176 185 173 168 168 174 183 187 186 185 181 177 166 143 70 16 3
215 215 215 215 215 213 211 211 214 215 215 215 215 215 215 215 217 219 221 223 223 221 220 219 218 217 218 220 220 220 221 221 221 222 223 224 224 225 225 225 225 225 226 227 226 225 225 224 224 225 224 222 219 219 220 222 221 219 219 215 210 207 206 208 205 197 188 175 165 173 179 177 173 173 177 183 187 187 186 187 189 182 88 350 344